Wetterdaten: Woche 06.10.14 - 12.10.14 (KW41)
Datum Zeit Temperatur Luftfeuchte Luftdruck Niederschlag Windrichtung Sonnenschein Solar Wind
06.10.2014 00:00 11,9 C 93 % 1013,0 hPa 0,0 l/m O-NO 0,00 h 0 W/m 4,0 km/h (1 Bft)
06.10.2014 01:00 11,7 C 93 % 1013,1 hPa 0,0 l/m O-NO 0,00 h 0 W/m 1,9 km/h (1 Bft)
06.10.2014 02:00 11,5 C 93 % 1012,9 hPa 0,0 l/m N 0,00 h 0 W/m 3,1 km/h (1 Bft)
06.10.2014 03:00 11,3 C 94 % 1012,7 hPa 0,0 l/m N 0,00 h 0 W/m 0,7 km/h (0 Bft)
06.10.2014 04:00 11,3 C 94 % 1012,2 hPa 0,0 l/m O-NO 0,00 h 0 W/m 1,3 km/h (1 Bft)
06.10.2014 05:00 11,2 C 95 % 1012,2 hPa 0,0 l/m N 0,00 h 0 W/m 1,6 km/h (1 Bft)
06.10.2014 06:00 11,1 C 96 % 1012,1 hPa 0,0 l/m N 0,00 h 0 W/m 0,8 km/h (0 Bft)
06.10.2014 07:00 11,1 C 96 % 1011,9 hPa 0,0 l/m N 0,00 h 5 W/m 0,3 km/h (0 Bft)
06.10.2014 08:00 11,1 C 97 % 1011,9 hPa 0,0 l/m O-NO 0,00 h 26 W/m 1,2 km/h (1 Bft)
06.10.2014 09:00 11,2 C 97 % 1012,0 hPa 0,0 l/m N 0,00 h 55 W/m 2,4 km/h (1 Bft)
06.10.2014 10:00 11,5 C 97 % 1012,0 hPa 0,0 l/m N 0,00 h 94 W/m 2,7 km/h (1 Bft)
06.10.2014 11:00 12,5 C 94 % 1011,7 hPa 0,0 l/m O-NO 0,00 h 156 W/m 3,3 km/h (1 Bft)
06.10.2014 12:00 14,2 C 87 % 1011,0 hPa 0,0 l/m O 1,00 h 616 W/m 7,9 km/h (2 Bft)
06.10.2014 13:00 15,6 C 82 % 1010,3 hPa 0,0 l/m NO 0,50 h 452 W/m 9,1 km/h (2 Bft)
06.10.2014 14:00 16,2 C 80 % 1009,6 hPa 0,0 l/m NO 0,42 h 375 W/m 12,5 km/h (3 Bft)
06.10.2014 15:00 16,2 C 80 % 1009,3 hPa 0,0 l/m NO 0,42 h 282 W/m 13,2 km/h (3 Bft)
06.10.2014 16:00 15,5 C 82 % 1009,2 hPa 0,0 l/m NO 0,75 h 267 W/m 14,4 km/h (3 Bft)
06.10.2014 17:00 14,8 C 85 % 1009,3 hPa 0,0 l/m N-NO 1,00 h 150 W/m 11,7 km/h (2 Bft)
06.10.2014 18:00 13,2 C 89 % 1009,5 hPa 0,0 l/m N-NO 0,00 h 24 W/m 9,0 km/h (2 Bft)
06.10.2014 19:00 11,8 C 93 % 1009,8 hPa 0,0 l/m N-NO 0,00 h 0 W/m 5,5 km/h (1 Bft)
06.10.2014 20:00 11,1 C 93 % 1009,9 hPa 0,0 l/m N 0,00 h 0 W/m 3,9 km/h (1 Bft)
06.10.2014 21:00 10,5 C 94 % 1010,0 hPa 0,0 l/m N-NO 0,00 h 0 W/m 3,7 km/h (1 Bft)
06.10.2014 22:00 10,0 C 95 % 1010,1 hPa 0,0 l/m N 0,00 h 0 W/m 0,7 km/h (0 Bft)
06.10.2014 23:00 9,3 C 94 % 1010,1 hPa 0,0 l/m N 0,00 h 0 W/m 0,0 km/h (0 Bft)
07.10.2014 00:00 9,3 C 96 % 1009,8 hPa 0,0 l/m N 0,00 h 0 W/m 0,5 km/h (0 Bft)
07.10.2014 01:00 9,4 C 96 % 1009,4 hPa 0,0 l/m N 0,00 h 0 W/m 1,1 km/h (0 Bft)
07.10.2014 02:00 9,0 C 96 % 1009,4 hPa 0,0 l/m N-NO 0,00 h 0 W/m 3,7 km/h (1 Bft)
07.10.2014 03:00 9,0 C 97 % 1009,2 hPa 0,0 l/m N 0,00 h 0 W/m 0,7 km/h (0 Bft)
07.10.2014 04:00 9,3 C 98 % 1008,8 hPa 0,0 l/m N 0,00 h 0 W/m 0,0 km/h (0 Bft)
07.10.2014 05:00 9,2 C 98 % 1008,8 hPa 0,0 l/m N 0,00 h 0 W/m 0,8 km/h (0 Bft)
07.10.2014 06:00 9,1 C 98 % 1008,8 hPa 0,0 l/m N 0,00 h 0 W/m 0,8 km/h (0 Bft)
07.10.2014 07:00 9,2 C 98 % 1008,7 hPa 0,2 l/m N-NO 0,00 h 5 W/m 3,3 km/h (1 Bft)
07.10.2014 08:00 9,3 C 98 % 1008,2 hPa 0,0 l/m N 0,00 h 19 W/m 1,2 km/h (1 Bft)
07.10.2014 09:00 10,5 C 98 % 1008,1 hPa 0,2 l/m N 0,00 h 73 W/m 2,4 km/h (1 Bft)
07.10.2014 10:00 12,4 C 91 % 1008,0 hPa 0,0 l/m N 0,08 h 164 W/m 2,7 km/h (1 Bft)
07.10.2014 11:00 14,3 C 85 % 1008,2 hPa 0,0 l/m O-NO 0,17 h 134 W/m 2,1 km/h (1 Bft)
07.10.2014 12:00 15,0 C 84 % 1008,3 hPa 0,0 l/m O-NO 0,00 h 115 W/m 3,6 km/h (1 Bft)
07.10.2014 13:00 16,8 C 71 % 1008,3 hPa 0,0 l/m W-SW 0,08 h 215 W/m 9,0 km/h (2 Bft)
07.10.2014 14:00 16,7 C 73 % 1008,4 hPa 0,0 l/m W-NW 0,08 h 159 W/m 14,4 km/h (3 Bft)
07.10.2014 15:00 16,0 C 76 % 1008,8 hPa 0,0 l/m W-SW 0,00 h 131 W/m 12,2 km/h (2 Bft)
07.10.2014 16:00 16,0 C 80 % 1008,6 hPa 0,0 l/m W 0,00 h 75 W/m 6,8 km/h (2 Bft)
07.10.2014 17:00 15,8 C 83 % 1008,7 hPa 0,0 l/m W 0,00 h 44 W/m 2,0 km/h (1 Bft)
07.10.2014 18:00 15,1 C 87 % 1009,1 hPa 0,0 l/m W 0,00 h 11 W/m 3,2 km/h (1 Bft)
07.10.2014 19:00 14,1 C 93 % 1009,6 hPa 0,0 l/m W 0,00 h 0 W/m 0,8 km/h (0 Bft)
07.10.2014 20:00 13,8 C 93 % 1010,1 hPa 0,2 l/m N 0,00 h 0 W/m 1,6 km/h (1 Bft)
07.10.2014 21:00 13,5 C 95 % 1011,0 hPa 0,0 l/m W 0,00 h 0 W/m 2,0 km/h (1 Bft)
07.10.2014 22:00 13,3 C 96 % 1011,8 hPa 0,2 l/m W 0,00 h 0 W/m 6,0 km/h (2 Bft)
07.10.2014 23:00 13,4 C 96 % 1012,7 hPa 1,0 l/m W-SW 0,00 h 0 W/m 7,2 km/h (2 Bft)
08.10.2014 00:00 13,2 C 97 % 1012,9 hPa 0,4 l/m SW 0,00 h 0 W/m 8,8 km/h (2 Bft)
08.10.2014 01:00 12,9 C 97 % 1013,5 hPa 1,4 l/m SW 0,00 h 0 W/m 9,9 km/h (2 Bft)
08.10.2014 02:00 12,7 C 98 % 1013,6 hPa 1,0 l/m SW 0,00 h 0 W/m 9,4 km/h (2 Bft)
08.10.2014 03:00 12,8 C 98 % 1013,3 hPa 0,6 l/m S-SW 0,00 h 0 W/m 12,0 km/h (2 Bft)
08.10.2014 04:00 12,5 C 98 % 1012,9 hPa 0,4 l/m S-SW 0,00 h 0 W/m 11,2 km/h (2 Bft)
08.10.2014 05:00 12,3 C 98 % 1012,3 hPa 0,2 l/m S-SW 0,00 h 0 W/m 3,9 km/h (1 Bft)
08.10.2014 06:00 12,2 C 98 % 1011,6 hPa 0,0 l/m N 0,00 h 0 W/m 2,7 km/h (1 Bft)
08.10.2014 07:00 11,9 C 98 % 1011,2 hPa 0,0 l/m N 0,00 h 10 W/m 0,8 km/h (0 Bft)
08.10.2014 08:00 11,8 C 98 % 1010,8 hPa 0,0 l/m N 0,00 h 48 W/m 0,4 km/h (0 Bft)
08.10.2014 09:00 12,4 C 99 % 1010,6 hPa 0,0 l/m N 0,00 h 114 W/m 0,9 km/h (0 Bft)
08.10.2014 10:00 14,0 C 98 % 1010,5 hPa 0,0 l/m S-SW 0,00 h 184 W/m 3,5 km/h (1 Bft)
08.10.2014 11:00 15,8 C 87 % 1010,1 hPa 0,0 l/m O-NO 0,83 h 342 W/m 6,4 km/h (2 Bft)
08.10.2014 12:00 17,3 C 80 % 1009,7 hPa 0,0 l/m O 0,08 h 228 W/m 7,1 km/h (2 Bft)
08.10.2014 13:00 17,9 C 79 % 1009,2 hPa 0,0 l/m O 0,08 h 205 W/m 4,4 km/h (1 Bft)
08.10.2014 14:00 18,7 C 77 % 1008,8 hPa 0,0 l/m O 0,58 h 328 W/m 3,3 km/h (1 Bft)
08.10.2014 15:00 19,2 C 78 % 1008,4 hPa 0,0 l/m SO 0,17 h 205 W/m 4,9 km/h (1 Bft)
08.10.2014 16:00 19,4 C 80 % 1008,0 hPa 0,0 l/m SO 0,50 h 195 W/m 3,6 km/h (1 Bft)
08.10.2014 17:00 18,9 C 85 % 1008,1 hPa 0,0 l/m N 0,00 h 66 W/m 0,8 km/h (0 Bft)
08.10.2014 18:00 17,4 C 91 % 1008,3 hPa 0,0 l/m N 0,00 h 18 W/m 0,5 km/h (0 Bft)
08.10.2014 19:00 16,1 C 94 % 1008,3 hPa 0,0 l/m N 0,00 h 0 W/m 0,1 km/h (0 Bft)
08.10.2014 20:00 15,5 C 94 % 1008,4 hPa 0,0 l/m N 0,00 h 0 W/m 0,0 km/h (0 Bft)
08.10.2014 21:00 14,7 C 94 % 1008,3 hPa 0,0 l/m N 0,00 h 0 W/m 0,4 km/h (0 Bft)
08.10.2014 22:00 13,8 C 94 % 1008,0 hPa 0,0 l/m N 0,00 h 0 W/m 0,3 km/h (0 Bft)
08.10.2014 23:00 12,8 C 94 % 1007,7 hPa 0,0 l/m N 0,00 h 0 W/m 0,1 km/h (0 Bft)
09.10.2014 00:00 12,1 C 94 % 1007,6 hPa 0,0 l/m N 0,00 h 0 W/m 0,1 km/h (0 Bft)
09.10.2014 01:00 11,3 C 94 % 1007,8 hPa 0,0 l/m N 0,00 h 0 W/m 0,0 km/h (0 Bft)
09.10.2014 02:00 10,5 C 95 % 1007,8 hPa 0,0 l/m N 0,00 h 0 W/m 0,3 km/h (0 Bft)
09.10.2014 03:00 9,9 C 95 % 1007,8 hPa 0,0 l/m N 0,00 h 0 W/m 0,4 km/h (0 Bft)
09.10.2014 04:00 9,8 C 96 % 1008,6 hPa 0,0 l/m N-NO 0,00 h 0 W/m 4,0 km/h (1 Bft)
09.10.2014 05:00 9,7 C 96 % 1008,8 hPa 0,0 l/m N 0,00 h 0 W/m 0,3 km/h (0 Bft)
09.10.2014 06:00 9,2 C 97 % 1009,0 hPa 0,0 l/m N 0,00 h 0 W/m 0,3 km/h (0 Bft)
09.10.2014 07:00 8,8 C 97 % 1009,1 hPa 0,2 l/m N 0,00 h 10 W/m 0,3 km/h (0 Bft)
09.10.2014 08:00 8,7 C 97 % 1009,1 hPa 0,0 l/m N 0,17 h 72 W/m 0,4 km/h (0 Bft)
09.10.2014 09:00 10,6 C 99 % 1009,3 hPa 0,0 l/m N 1,00 h 230 W/m 1,1 km/h (0 Bft)
09.10.2014 10:00 13,3 C 100 % 1009,3 hPa 0,0 l/m N 1,00 h 370 W/m 0,3 km/h (0 Bft)
09.10.2014 11:00 15,8 C 95 % 1009,0 hPa 0,0 l/m S 1,00 h 507 W/m 8,6 km/h (2 Bft)
09.10.2014 12:00 20,9 C 63 % 1008,7 hPa 0,0 l/m S-SW 1,00 h 581 W/m 20,6 km/h (4 Bft)
09.10.2014 13:00 23,4 C 49 % 1008,3 hPa 0,0 l/m SW 1,00 h 598 W/m 23,7 km/h (4 Bft)
09.10.2014 14:00 24,5 C 44 % 1008,0 hPa 0,0 l/m SW 1,00 h 562 W/m 18,4 km/h (3 Bft)
09.10.2014 15:00 25,3 C 42 % 1007,8 hPa 0,0 l/m SW 0,92 h 447 W/m 11,7 km/h (2 Bft)
09.10.2014 16:00 24,9 C 44 % 1007,5 hPa 0,0 l/m SW 0,83 h 339 W/m 9,1 km/h (2 Bft)
09.10.2014 17:00 23,3 C 53 % 1007,4 hPa 0,0 l/m SW 0,42 h 100 W/m 4,0 km/h (1 Bft)
09.10.2014 18:00 20,3 C 67 % 1007,9 hPa 0,0 l/m SW 0,17 h 21 W/m 2,4 km/h (1 Bft)
09.10.2014 19:00 18,4 C 70 % 1008,7 hPa 0,0 l/m N-NW 0,00 h 0 W/m 5,1 km/h (1 Bft)
09.10.2014 20:00 17,3 C 72 % 1009,8 hPa 0,0 l/m NW 0,00 h 0 W/m 7,4 km/h (2 Bft)
09.10.2014 21:00 16,9 C 72 % 1010,8 hPa 0,0 l/m NW 0,00 h 0 W/m 3,5 km/h (1 Bft)
09.10.2014 22:00 15,3 C 77 % 1011,5 hPa 0,0 l/m N 0,00 h 0 W/m 0,1 km/h (0 Bft)
09.10.2014 23:00 13,5 C 83 % 1012,0 hPa 0,0 l/m N 0,00 h 0 W/m 0,3 km/h (0 Bft)
10.10.2014 00:00 12,3 C 87 % 1012,1 hPa 0,0 l/m N 0,00 h 0 W/m 0,3 km/h (0 Bft)
10.10.2014 01:00 11,7 C 90 % 1012,2 hPa 0,0 l/m N 0,00 h 0 W/m 0,7 km/h (0 Bft)
10.10.2014 02:00 11,5 C 93 % 1012,3 hPa 0,0 l/m N 0,00 h 0 W/m 0,7 km/h (0 Bft)
10.10.2014 03:00 11,6 C 94 % 1012,1 hPa 0,0 l/m N 0,00 h 0 W/m 0,0 km/h (0 Bft)
10.10.2014 04:00 11,8 C 95 % 1012,2 hPa 0,0 l/m N 0,00 h 0 W/m 0,0 km/h (0 Bft)
10.10.2014 05:00 12,1 C 95 % 1012,6 hPa 0,0 l/m N 0,00 h 0 W/m 0,0 km/h (0 Bft)
10.10.2014 06:00 12,2 C 96 % 1013,0 hPa 0,0 l/m N 0,00 h 0 W/m 0,3 km/h (0 Bft)
10.10.2014 07:00 12,5 C 96 % 1013,6 hPa 0,0 l/m N 0,00 h 6 W/m 0,4 km/h (0 Bft)
10.10.2014 08:00 13,0 C 97 % 1014,0 hPa 0,0 l/m NW 0,00 h 22 W/m 1,5 km/h (1 Bft)
10.10.2014 09:00 13,8 C 97 % 1014,4 hPa 0,0 l/m N 0,00 h 68 W/m 0,1 km/h (0 Bft)
10.10.2014 10:00 15,3 C 94 % 1014,5 hPa 0,0 l/m N 0,17 h 194 W/m 1,6 km/h (1 Bft)
10.10.2014 11:00 17,7 C 81 % 1014,1 hPa 0,0 l/m NO 0,67 h 345 W/m 5,8 km/h (1 Bft)
10.10.2014 12:00 19,6 C 66 % 1013,8 hPa 0,0 l/m O-NO 0,92 h 570 W/m 11,8 km/h (2 Bft)
10.10.2014 13:00 20,0 C 68 % 1013,3 hPa 0,0 l/m NO 0,33 h 269 W/m 12,5 km/h (3 Bft)
10.10.2014 14:00 19,7 C 71 % 1013,3 hPa 0,0 l/m NO 0,00 h 177 W/m 10,1 km/h (2 Bft)
10.10.2014 15:00 19,3 C 77 % 1013,1 hPa 0,0 l/m NO 0,25 h 205 W/m 12,8 km/h (3 Bft)
10.10.2014 16:00 19,2 C 76 % 1013,2 hPa 0,0 l/m NO 0,25 h 150 W/m 10,9 km/h (2 Bft)
10.10.2014 17:00 18,4 C 80 % 1013,0 hPa 0,0 l/m O-NO 0,00 h 43 W/m 8,3 km/h (2 Bft)
10.10.2014 18:00 17,2 C 81 % 1012,6 hPa 0,0 l/m NO 0,00 h 12 W/m 6,1 km/h (2 Bft)
10.10.2014 19:00 16,0 C 83 % 1012,4 hPa 0,0 l/m NO 0,00 h 0 W/m 4,9 km/h (1 Bft)
10.10.2014 20:00 15,6 C 86 % 1012,1 hPa 0,0 l/m NO 0,00 h 0 W/m 6,5 km/h (2 Bft)
10.10.2014 21:00 15,0 C 89 % 1011,7 hPa 0,0 l/m NO 0,00 h 0 W/m 6,1 km/h (2 Bft)
10.10.2014 22:00 14,4 C 91 % 1011,5 hPa 0,0 l/m NO 0,00 h 0 W/m 6,0 km/h (2 Bft)
10.10.2014 23:00 13,8 C 93 % 1011,0 hPa 0,0 l/m NO 0,00 h 0 W/m 4,4 km/h (1 Bft)
11.10.2014 00:00 13,4 C 94 % 1010,4 hPa 0,0 l/m N 0,00 h 0 W/m 2,8 km/h (1 Bft)
11.10.2014 01:00 12,9 C 95 % 1010,4 hPa 0,0 l/m NO 0,00 h 0 W/m 4,4 km/h (1 Bft)
11.10.2014 02:00 12,6 C 96 % 1010,4 hPa 0,0 l/m NO 0,00 h 0 W/m 3,6 km/h (1 Bft)
11.10.2014 03:00 12,9 C 97 % 1011,2 hPa 0,0 l/m N 0,00 h 0 W/m 6,5 km/h (2 Bft)
11.10.2014 04:00 13,1 C 98 % 1011,5 hPa 0,0 l/m N-NW 0,00 h 0 W/m 3,3 km/h (1 Bft)
11.10.2014 05:00 12,9 C 98 % 1012,0 hPa 0,0 l/m S-SW 0,00 h 0 W/m 7,5 km/h (2 Bft)
11.10.2014 06:00 12,7 C 98 % 1012,1 hPa 0,0 l/m N 0,00 h 0 W/m 0,1 km/h (0 Bft)
11.10.2014 07:00 12,3 C 98 % 1012,1 hPa 0,0 l/m N 0,00 h 5 W/m 1,5 km/h (1 Bft)
11.10.2014 08:00 12,3 C 98 % 1012,3 hPa 0,0 l/m S-SW 0,00 h 24 W/m 6,4 km/h (2 Bft)
11.10.2014 09:00 13,0 C 98 % 1012,7 hPa 0,0 l/m S-SW 0,00 h 75 W/m 6,7 km/h (2 Bft)
11.10.2014 10:00 13,7 C 99 % 1012,8 hPa 0,0 l/m S-SW 0,00 h 66 W/m 3,5 km/h (1 Bft)
11.10.2014 11:00 14,3 C 99 % 1012,8 hPa 0,0 l/m S-SW 0,00 h 84 W/m 5,6 km/h (1 Bft)
11.10.2014 12:00 15,1 C 99 % 1012,8 hPa 0,0 l/m N 0,00 h 93 W/m 3,1 km/h (1 Bft)
11.10.2014 13:00 16,1 C 95 % 1012,8 hPa 0,0 l/m S-SW 0,00 h 119 W/m 2,7 km/h (1 Bft)
11.10.2014 14:00 17,0 C 86 % 1012,6 hPa 0,0 l/m S-SW 0,00 h 149 W/m 5,5 km/h (1 Bft)
11.10.2014 15:00 17,3 C 81 % 1012,6 hPa 0,0 l/m S-SW 0,08 h 127 W/m 6,2 km/h (2 Bft)
11.10.2014 16:00 17,9 C 78 % 1012,5 hPa 0,0 l/m S-SW 0,58 h 201 W/m 5,6 km/h (1 Bft)
11.10.2014 17:00 17,4 C 80 % 1012,5 hPa 0,0 l/m S-SW 0,00 h 60 W/m 3,3 km/h (1 Bft)
11.10.2014 18:00 16,3 C 88 % 1012,8 hPa 0,0 l/m N 0,00 h 14 W/m 0,3 km/h (0 Bft)
11.10.2014 19:00 15,7 C 90 % 1013,3 hPa 0,0 l/m N 0,00 h 0 W/m 0,3 km/h (0 Bft)
11.10.2014 20:00 15,1 C 90 % 1013,5 hPa 0,0 l/m N 0,00 h 0 W/m 0,0 km/h (0 Bft)
11.10.2014 21:00 14,2 C 90 % 1013,9 hPa 0,0 l/m N 0,00 h 0 W/m 0,1 km/h (0 Bft)
11.10.2014 22:00 13,8 C 92 % 1014,3 hPa 0,0 l/m N 0,00 h 0 W/m 0,8 km/h (0 Bft)
11.10.2014 23:00 13,6 C 94 % 1014,2 hPa 0,0 l/m S-SW 0,00 h 0 W/m 0,9 km/h (0 Bft)
12.10.2014 00:00 13,3 C 95 % 1014,0 hPa 0,0 l/m S-SW 0,00 h 0 W/m 0,9 km/h (0 Bft)
12.10.2014 01:00 13,3 C 96 % 1013,8 hPa 0,0 l/m S-SW 0,00 h 0 W/m 0,7 km/h (0 Bft)
12.10.2014 02:00 13,2 C 96 % 1013,9 hPa 0,0 l/m N 0,00 h 0 W/m 0,0 km/h (0 Bft)
12.10.2014 03:00 13,3 C 97 % 1013,6 hPa 0,0 l/m N 0,00 h 0 W/m 0,4 km/h (0 Bft)
12.10.2014 04:00 13,1 C 97 % 1013,4 hPa 0,0 l/m N 0,00 h 0 W/m 1,3 km/h (1 Bft)
12.10.2014 05:00 13,2 C 97 % 1013,2 hPa 0,0 l/m N 0,00 h 0 W/m 0,3 km/h (0 Bft)
12.10.2014 06:00 12,8 C 97 % 1012,9 hPa 0,0 l/m O 0,00 h 0 W/m 3,9 km/h (1 Bft)
12.10.2014 07:00 12,9 C 98 % 1012,9 hPa 0,0 l/m O 0,00 h 6 W/m 7,0 km/h (2 Bft)
12.10.2014 08:00 12,8 C 98 % 1012,9 hPa 0,0 l/m O 0,00 h 36 W/m 10,1 km/h (2 Bft)
12.10.2014 09:00 12,6 C 97 % 1012,9 hPa 0,0 l/m O-NO 0,00 h 46 W/m 10,5 km/h (2 Bft)
12.10.2014 10:00 12,8 C 96 % 1012,6 hPa 0,0 l/m O-NO 0,00 h 75 W/m 11,6 km/h (2 Bft)
12.10.2014 11:00 13,3 C 95 % 1012,1 hPa 0,0 l/m O-NO 0,00 h 102 W/m 9,7 km/h (2 Bft)
12.10.2014 12:00 13,8 C 94 % 1012,0 hPa 0,0 l/m NO 0,00 h 127 W/m 10,1 km/h (2 Bft)
12.10.2014 13:00 15,0 C 90 % 1011,0 hPa 0,0 l/m O-NO 0,25 h 266 W/m 11,3 km/h (2 Bft)
12.10.2014 14:00 16,4 C 86 % 1009,9 hPa 0,0 l/m O-NO 0,83 h 430 W/m 12,8 km/h (3 Bft)
12.10.2014 15:00 17,8 C 81 % 1009,0 hPa 0,0 l/m O 1,00 h 420 W/m 14,4 km/h (3 Bft)
12.10.2014 16:00 17,4 C 82 % 1008,2 hPa 0,0 l/m O 1,00 h 246 W/m 15,2 km/h (3 Bft)
12.10.2014 17:00 16,6 C 86 % 1007,8 hPa 0,0 l/m O-NO 0,33 h 82 W/m 11,1 km/h (2 Bft)
12.10.2014 18:00 15,9 C 89 % 1008,0 hPa 0,0 l/m NO 0,00 h 9 W/m 8,3 km/h (2 Bft)
12.10.2014 19:00 15,4 C 90 % 1007,8 hPa 0,0 l/m N 0,00 h 0 W/m 4,4 km/h (1 Bft)
12.10.2014 20:00 14,9 C 92 % 1007,4 hPa 0,0 l/m N-NO 0,00 h 0 W/m 2,0 km/h (1 Bft)
12.10.2014 21:00 14,4 C 93 % 1007,2 hPa 0,0 l/m N-NO 0,00 h 0 W/m 2,5 km/h (1 Bft)
12.10.2014 22:00 13,6 C 93 % 1007,1 hPa 0,0 l/m N 0,00 h 0 W/m 1,5 km/h (1 Bft)
12.10.2014 23:00 13,1 C 95 % 1007,3 hPa 0,0 l/m N 0,00 h 0 W/m 0,0 km/h (0 Bft)
Min-Datum _ 09.10.14 09.10.14 12.10.14 - - - - 06.10.14
_ Min-Zeit 08:05 15:30 20:55 - - - - 00:50
Minimum _ 8,4 C 39 % 1006,8 hPa - - - - 0,0 km/h (0 Bft)
Max-Datum _ 09.10.14 09.10.14 10.10.14 08.10.14 - 06.10.14 10.10.14 09.10.14
_ Max-Zeit 15:35 10:15 10:10 01:50 - 12:00 13:10 12:40
Maximum _ 25,6 C 100 % 1014,7 hPa 1,4 l/m - 0,08 h 742 W/m 29,0 km/h
SW (5 Bft)
Durchschnitt _ 14,1 C 89 % 1010,8 hPa #6,0 l/m NO #21:55 h 171 W/m 4,5 km/h (1 Bft)